Find Starlink 32850

NORAD ID: 62950 Int'l Des: 2025-029 Owner: SPXS Country: US Constellation: starlink operational
LEOCIRCULAR

当前视图

正在加载3D地球...

About Starlink 32850

Starlink 32850 (NORAD 62950) is a starlink constellation satellite (v2 mini) launched Feb 11, 2025 by SPXS of US. It operates in LEO, CIRCULAR orbit with a mass of 730.00 kg.

即将过境

Passes for default location (London). Set your location on the main map for personalized predictions.

高度历史

Loading altitude history...

两行轨道根数

1 62950U 25029C 26263.09905049 .00011100 00000-0 36874-3 0 9999
2 62950 53.1583 47.9507 0000726 89.8602 270.2483 15.31715057 91112
Epoch: Sep 20, 2026 • Age: 24 hours

当前状态

高度 475.0 km
远地点 / 近地点 N/A
速度 7.63 km/s
星下点 45.32°N, 60.18°E
发射日期 Feb 11, 2025
运行时间 1.6 years
类型 internet

技术详情

分类 Payload
质量 730.00 kg
干质量 700.00 kg
长度 0.30 m
跨度 29.00 m
形状 ? Box + pan
制造商 SPXS
平台类型 Starlink V2M
阶段状态 In Orbit
所有者/国家 SPXS/US

Most Searched